sat.trackr.live / text

‹ back to catalog

GEESAT-5 08

NORAD 65557 · 2025-201H

PAYLOAD ACTIVE UNKNOWN

§ Identity

Operator
Country
PRC
Launch date
2025-09-08
Launch site
YSLA
Launch vehicle
Mass (kg)
RCS (m²)

External: N2YO · Heavens-Above · Gunter

§ Orbital elements

Epoch: 2026-05-25T00:22:38.733312Z

Period
97.12 min
Inclination
49.9778°
Eccentricity
0.0002073
Mean motion
14.82768213 rev/d
Perigee alt
619.1 km
Apogee alt
622.1 km
Semi-major
6,998.7 km
B*
1.7176e-4
RAAN
142.9712°
Arg perigee
234.3835°
Mean anomaly
125.6910°
Rev number
3,841

§ Raw data

GEESAT-5 081 65557U 25201H   26145.01572608  .00001179  00000+0  17176-3 0  99972 65557  49.9778 142.9712 0002073 234.3835 125.6910 14.82768213 38412

JSON: /api/v1/satellites/65557 · /tle

For live sub-satellite position, see the globe view (requires WebGL).

§ Visibility from observer

Set your observer location to see the next 7 days of passes ≥ 10°. The values pass through the URL so the page stays shareable.

No JS? Fill the form by hand. The geolocation button needs JavaScript.